Weather History for KPWK - June, 2013

Change the Weather History Date:

Thursday, June 13, 2013

  Actual Average Record
Temperature  
Mean Temperature 65 °F 68 °F  
Max Temperature 72 °F 79 °F 90 °F (2001)
Min Temperature 57 °F 57 °F 50 °F (2006)
Degree Days  
Heating Degree Days 0 2  
Month to date heating degree days 50 38  
Since 1 June heating degree days 50 38  
Since 1 July heating degree days 6365 6396  
Cooling Degree Days 0 5  
Month to date cooling degree days 25 48  
Year to date cooling degree days 106 90  
Since 1 June cooling degree days 25 48  
Growing Degree Days 14 (Base 50)    
Moisture  
Dew Point 55 °F    
Average Humidity 71    
Maximum Humidity 94    
Minimum Humidity 51    
Precipitation  
Precipitation 0.00 in 0.13 in 2.02 in (1999)
Month to date precipitation 1.28 1.98  
Year to date precipitation 11.24 13.47  
Sea Level Pressure  
Sea Level Pressure 29.89 in    
Wind  
Wind Speed 10 mph (NNE)    
Max Wind Speed 18 mph    
Max Gust Speed 24 mph    
Visibility 10 miles    
Events      
T = Trace of Precipitation, MM = Missing Value Source: NWS Daily Summary

Daily Weather History Graph

Daily Weather History Graph

Search for Another Location

Airport or City:

Trip Planner

Search our weather history database for the weather conditions in past years. The results will help you decide how hot, cold, wet, or windy it might be!

Date:

Astronomy

Jun. 13, 2013 Rise Set
Actual Time 5:15 AM CDT 8:28 PM CDT
Civil Twilight 4:40 AM CDT 9:03 PM CDT
Nautical Twilight 3:56 AM CDT 9:47 PM CDT
Astronomical Twilight 3:02 AM CDT 10:41 PM CDT
Moon 9:55 AM CDT (6/13) 11:30 PM CDT (6/13)
Length of Visible Light 16h 22m
Length of Day
15h 13m
Waxing Crescent, 22% of the Moon is Illuminated
Jun 13
Waxing Crescent
Jun 16
First Quarter
Jun 23
Full
Jun 29
Last Quarter
Jul 8
New

Hourly Weather History & Observations

Time (CDT) Temp. Dew Point Humidity Pressure Visibility Wind Dir Wind Speed Gust Speed Precip Events Conditions
12:52 AM 64.0 °F 61.0 °F 90% 29.70 in 10.0 mi Calm Calm - N/A   Scattered Clouds
1:05 AM 64.4 °F 60.8 °F 88% 29.72 in 10.0 mi NE 6.9 mph - N/A   Mostly Cloudy
1:13 AM 62.6 °F 60.8 °F 94% 29.72 in 9.0 mi North 8.1 mph - N/A   Mostly Cloudy
1:52 AM 62.1 °F 60.1 °F 93% 29.69 in 5.0 mi NNE 9.2 mph - N/A   Overcast
2:52 AM 63.0 °F 61.0 °F 93% 29.72 in 8.0 mi NNW 9.2 mph - N/A   Overcast
3:03 AM 62.6 °F 60.8 °F 94% 29.73 in 7.0 mi North 11.5 mph - N/A   Overcast
3:47 AM 62.6 °F 57.2 °F 82% 29.77 in 10.0 mi NNW 9.2 mph - N/A   Overcast
3:52 AM 62.1 °F 57.0 °F 84% 29.76 in 10.0 mi NNW 9.2 mph - N/A   Overcast
4:01 AM 62.6 °F 57.2 °F 82% 29.77 in 10.0 mi NNW 9.2 mph - N/A   Overcast
4:52 AM 62.1 °F 55.0 °F 78% 29.79 in 10.0 mi North 11.5 mph 16.1 mph N/A   Overcast
5:00 AM 62.6 °F 53.6 °F 72% 29.80 in 10.0 mi North 11.5 mph - N/A   Overcast
5:35 AM 60.8 °F 53.6 °F 77% 29.81 in 10.0 mi North 6.9 mph - N/A   Mostly Cloudy
5:52 AM 61.0 °F 54.0 °F 78% 29.81 in 10.0 mi North 8.1 mph - N/A   Overcast
6:52 AM 62.1 °F 54.0 °F 75% 29.85 in 10.0 mi North 8.1 mph - N/A   Scattered Clouds
7:01 AM 62.6 °F 53.6 °F 72% 29.86 in 10.0 mi North 6.9 mph - N/A   Mostly Cloudy
7:26 AM 64.4 °F 55.4 °F 73% 29.86 in 10.0 mi North 5.8 mph - N/A   Clear
7:52 AM 66.0 °F 54.0 °F 65% 29.88 in 10.0 mi NNE 10.4 mph 16.1 mph N/A   Partly Cloudy
8:52 AM 68.0 °F 50.0 °F 52% 29.92 in 10.0 mi NNE 15.0 mph 24.2 mph N/A   Clear
9:52 AM 71.1 °F 52.0 °F 51% 29.92 in 10.0 mi NNE 13.8 mph 20.7 mph N/A   Clear
10:52 AM 71.1 °F 54.0 °F 55% 29.95 in 10.0 mi NNE 8.1 mph - N/A   Clear
11:52 AM 71.1 °F 55.0 °F 57% 29.96 in 10.0 mi NE 13.8 mph 20.7 mph N/A   Clear
12:52 PM 71.1 °F 53.1 °F 53% 29.98 in 10.0 mi NNE 15.0 mph - N/A   Clear
1:52 PM 70.0 °F 52.0 °F 53% 30.00 in 10.0 mi NE 15.0 mph 23.0 mph N/A   Clear
2:52 PM 69.1 °F 52.0 °F 54% 30.00 in 10.0 mi NNE 15.0 mph 20.7 mph N/A   Clear
3:52 PM 69.1 °F 54.0 °F 58% 30.01 in 10.0 mi NE 12.7 mph - N/A   Clear
4:52 PM 71.1 °F 53.1 °F 53% 30.00 in 10.0 mi NNE 9.2 mph - N/A   Clear
5:52 PM 66.0 °F 53.1 °F 63% 30.01 in 10.0 mi NE 8.1 mph - N/A   Clear
6:52 PM 64.0 °F 52.0 °F 65% 30.03 in 10.0 mi NNE 9.2 mph - N/A   Clear
7:52 PM 63.0 °F 51.1 °F 65% 30.04 in 10.0 mi NNE 8.1 mph - N/A   Clear
8:52 PM 61.0 °F 51.1 °F 70% 30.05 in 10.0 mi NNE 3.5 mph - N/A   Clear
9:52 PM 60.1 °F 50.0 °F 69% 30.07 in 10.0 mi NNE 6.9 mph - N/A   Clear
10:52 PM 57.9 °F 50.0 °F 75% 30.07 in 10.0 mi NNE 8.1 mph - N/A   Clear
11:52 PM 57.9 °F 50.0 °F 75% 30.06 in 10.0 mi NNE 9.2 mph - N/A   Clear